Location: Newark
(0.5300°S, 127.4800°E)
Time: 13:39:16
(UTC+00:00)

Vanguard 3 - Pass Details

Date: 22 September 2019
Orbit: 508 x 3262 km, 33.3° (Epoch: 21 October)

Event Time Altitude Azimuth Distance (km) Brightness Sun altitude
Rises 20:46:27 0° 259° (WSW) 3,999 - -9.1°
Exits shadow 20:48:50 10° 266° (W) 3,354 9.6 -8.5°
Reaches altitude 10° 20:48:56 10° 267° (W) 3,330 9.6 -8.5°
Maximum altitude 20:57:07 40° 334° (NNW) 2,551 9.5 -6.4°
Drops below altitude 10° 21:10:47 10° 38° (NE) 5,470 12.0 -3.0°
Sets 21:16:20 0° 45° (NE) 6,826 12.6 -1.6°
